Wind_Speed
21 21 21 22 22 22 22 22 23 23 24 24 24 24 24 24 24 24 23 23 22 22 22 22 22 22 22 22 23 23 23 23 22 22 22 22 23 23 23 23 23 23 23
22 22 22 23 23 23 23 24 24 23 23 24 25 25 25 25 24 25 24 24 24 24 24 24 24 24 24 24 24 23 24 24 23 23 23 24 24 24 24 25 25 25 25
23 23 23 23 23 24 25 25 25 24 24 24 25 25 25 25 26 25 25 25 26 26 25 25 25 25 25 25 25 25 25 24 24 24 24 24 24 25 25 26 26 26 26
24 24 25 25 25 25 26 26 26 25 24 24 25 25 25 25 25 26 27 27 27 27 27 27 27 27 27 27 27 27 26 26 26 26 25 25 25 26 26 26 27 27 27
25 25 26 26 26 27 27 27 27 27 26 26 26 27 27 27 27 27 28 28 28 28 29 29 29 28 28 28 28 28 27 27 26 26 26 26 26 27 27 27 27 27 28
26 26 26 26 26 27 27 28 28 27 28 27 27 28 28 28 28 28 28 29 30 30 30 30 29 29 29 28 28 28 28 27 27 27 27 27 27 27 27 27 27 28 28
27 27 27 27 27 28 29 29 29 29 29 29 29 29 29 29 29 29 29 30 30 31 30 30 30 29 28 28 28 29 28 27 27 28 28 28 28 28 27 27 28 28 28
28 28 28 29 29 29 30 30 30 30 31 31 31 30 30 30 30 29 30 30 30 31 31 31 31 30 30 28 28 28 28 28 28 28 28 28 28 28 28 28 28 28 28
30 30 30 31 31 30 30 30 31 31 32 32 33 33 32 32 31 31 31 31 30 30 31 31 31 31 31 30 29 29 29 29 29 30 29 29 28 29 29 29 29 29 29
31 32 32 32 32 32 32 32 32 32 32 33 33 34 34 34 33 33 32 32 31 31 32 31 32 32 32 31 31 30 29 30 31 31 30 30 29 29 29 29 30 30 30
33 33 33 33 34 33 33 33 33 33 33 33 34 35 35 35 34 35 34 33 32 33 33 33 33 33 33 32 32 32 31 31 32 31 31 31 30 30 30 30 31 31 31
35 34 34 34 34 34 34 34 34 34 34 34 35 35 35 35 34 35 35 35 35 35 34 33 33 33 32 32 33 33 33 33 32 32 32 32 31 31 31 31 31 31 32
35 34 35 35 35 35 35 34 34 34 34 35 35 35 35 35 35 35 35 35 35 35 35 34 33 33 33 33 33 34 33 32 32 31 31 30 30 30 30 30 30 30 30
35 35 35 35 35 35 35 35 35 35 35 35 35 34 34 34 34 34 34 35 35 35 34 33 33 34 33 33 33 33 33 33 32 32 31 31 30 30 30 30 30 30 30
34 34 35 35 35 35 35 35 35 35 35 35 34 34 34 33 33 33 33 34 34 34 34 33 32 33 33 33 32 32 32 33 33 32 32 32 31 31 31 31 31 31 31
34 35 34 35 35 34 34 34 34 35 34 34 34 33 33 32 32 32 32 32 32 33 33 32 32 33 33 33 33 33 33 32 32 32 32 32 32 31 31 31 31 32 31
34 35 35 34 34 34 34 34 33 33 33 33 33 33 32 32 31 31 31 31 31 32 32 31 31 32 33 32 33 33 33 33 33 33 33 32 31 31 31 31 31 31 31
34 34 34 34 34 33 32 32 32 32 32 32 32 32 32 31 31 30 30 30 30 31 31 31 31 32 33 33 33 33 33 33 33 33 33 32 31 31 31 31 31 31 31
33 33 33 33 33 32 32 31 32 32 31 31 31 31 31 30 30 30 29 29 30 31 32 32 32 33 33 34 33 33 33 33 33 33 33 32 31 31 31 31 31 30 31
32 32 32 32 31 31 31 31 31 30 30 30 29 29 29 29 29 29 29 30 31 32 32 32 32 32 32 33 33 32 32 32 32 32 32 33 32 32 32 31 30 30 30
31 31 31 31 31 30 29 30 29 29 28 28 27 27 27 27 27 28 30 30 31 30 30 31 31 31 31 31 31 31 31 31 31 31 31 31 31 32 31 31 31 31 31
32 31 31 30 29 29 28 28 28 27 27 27 26 26 25 25 26 26 27 28 28 28 28 28 29 29 30 30 30 30 30 30 30 30 30 30 30 31 31 31 30 30 31
31 30 30 29 28 27 27 26 26 26 25 25 26 26 25 26 26 25 26 26 26 26 26 26 26 27 27 28 29 29 29 30 30 29 29 30 30 30 30 30 29 29 30
30 30 29 28 27 26 25 25 25 24 24 24 25 25 25 25 25 25 25 25 25 26 26 25 25 25 26 26 27 28 28 28 28 29 29 29 29 29 29 29 29 29 29
30 29 28 27 27 26 25 25 25 24 24 24 24 24 24 24 23 24 24 24 24 25 25 24 24 24 24 25 25 25 25 26 26 27 28 28 28 28 28 27 27 27 27
28 28 27 26 26 25 25 25 24 24 24 23 23 24 24 24 23 23 23 23 23 23 24 24 23 23 24 24 24 24 25 25 25 26 26 27 27 28 28 28 28 27 27
Wind_Direction
285 282 280 281 280 280 281 280 280 279 279 277 274 273 271 270 270 270 271 271 272 273 273 273 274 274 272 273 273 273 273 275 274 273 273 272 272 272 271 270 268 266 265
286 283 280 281 282 282 282 283 283 281 279 278 277 274 272 270 270 271 270 270 271 272 274 274 274 274 272 272 274 274 274 274 273 274 274 273 272 272 272 270 268 267 266
284 282 282 282 282 282 282 285 285 282 281 278 277 276 273 272 271 270 269 269 270 271 272 274 274 273 272 272 272 273 274 274 273 274 275 274 273 272 271 270 269 268 268
284 282 281 281 282 282 282 284 284 283 282 279 276 276 276 274 273 272 270 271 271 270 270 271 272 272 272 271 272 273 272 272 272 273 274 274 273 273 272 271 270 270 269
284 283 281 281 281 282 283 283 283 282 281 279 277 276 276 276 274 272 271 271 271 271 271 270 269 270 270 270 271 272 272 271 271 273 275 274 273 273 272 272 271 270 269
284 283 281 281 282 282 283 283 282 281 280 280 279 278 278 277 276 274 272 271 271 271 271 270 269 269 270 269 270 270 271 272 272 272 273 273 272 272 272 272 271 270 269
282 282 281 281 282 282 282 282 281 280 280 279 279 278 278 278 275 275 274 272 272 271 270 270 269 269 268 268 268 268 270 270 272 273 274 273 272 271 272 272 271 270 270
280 281 282 282 283 283 282 281 280 280 279 278 278 278 279 278 276 276 275 273 271 270 269 269 269 267 268 267 267 268 269 271 272 272 273 272 271 271 272 272 271 271 271
280 281 283 283 283 283 283 282 281 279 279 279 278 277 277 278 277 277 276 274 272 270 268 268 268 268 266 266 267 268 269 270 271 272 272 271 270 270 271 271 271 271 271
279 281 283 283 282 282 282 282 282 281 280 279 279 278 276 276 276 276 277 274 272 270 269 267 266 265 266 264 266 267 268 269 269 270 271 271 271 271 270 270 270 270 269
279 281 282 283 282 281 282 282 281 281 281 281 280 279 277 275 274 274 274 274 273 271 269 267 266 266 265 263 264 266 267 268 268 269 270 270 271 270 268 269 270 269 268
279 280 282 283 282 281 281 282 282 282 282 282 282 280 276 275 274 274 273 273 274 272 270 268 265 265 264 264 264 265 264 264 267 268 269 270 270 270 269 268 268 268 266
279 280 281 282 282 282 281 282 283 283 283 283 283 282 278 276 275 274 274 274 273 272 271 269 267 264 263 263 263 264 263 263 265 267 267 268 269 269 269 268 268 268 266
281 281 281 282 282 282 283 283 283 283 282 282 283 282 279 277 275 274 272 272 272 271 269 267 265 264 263 262 262 262 262 264 264 266 267 268 269 268 269 269 269 269 267
284 284 284 284 284 284 284 284 283 283 282 282 281 280 278 276 275 273 271 270 271 268 267 265 264 265 263 262 262 263 263 264 265 265 267 269 269 269 269 268 267 268 266
288 287 286 286 284 284 283 283 284 283 281 281 280 280 279 277 275 273 272 270 269 267 265 263 262 264 264 263 262 262 262 264 265 265 266 268 269 268 268 267 266 266 265
288 287 286 286 284 284 284 284 284 283 282 280 280 279 277 276 274 272 270 270 269 266 264 262 261 263 265 264 262 262 262 262 263 264 265 266 267 267 267 267 265 265 266
290 288 287 286 285 284 283 284 284 284 282 281 280 279 277 275 272 270 269 268 267 266 266 266 264 264 264 263 263 262 262 261 262 263 264 265 266 266 266 267 265 265 265
290 289 288 288 287 284 283 283 284 283 283 282 281 279 277 274 272 269 268 268 268 268 268 268 267 265 264 264 265 264 263 262 262 263 264 263 264 264 264 266 265 263 262
291 289 288 288 287 286 285 284 284 283 282 283 283 281 277 273 272 270 268 268 268 269 268 267 267 266 265 264 265 265 264 264 264 264 264 263 262 262 264 265 264 263 261
291 289 289 289 287 287 285 284 284 284 284 283 284 283 279 275 272 271 271 270 269 268 267 267 267 267 266 266 265 265 265 265 266 265 264 263 263 263 264 264 264 263 261
291 289 288 289 288 286 285 283 283 284 284 282 282 282 281 277 273 272 272 271 269 268 268 268 268 267 265 265 266 266 266 265 265 265 264 264 263 263 263 264 263 261 259
292 291 289 288 287 286 285 282 281 281 282 282 280 280 280 278 274 270 270 270 269 269 270 270 270 268 267 266 266 267 267 267 265 264 263 264 264 264 262 262 261 259 258
290 290 290 289 287 286 284 283 281 280 280 280 279 278 278 278 275 272 270 269 269 269 270 271 271 271 270 269 268 267 266 265 264 262 262 263 264 264 262 261 259 259 258
288 288 289 289 288 286 284 282 281 279 279 277 276 276 277 278 276 274 273 272 272 272 271 272 273 272 271 270 269 268 267 265 264 263 262 262 263 263 261 259 259 259 260
288 288 288 289 289 288 285 282 280 280 279 278 276 275 275 275 274 274 273 273 272 273 274 273 275 275 273 272 271 272 271 268 266 265 264 264 263 262 262 262 261 260 261
Height
5799 5798 5796 5795 5794 5792 5790 5789 5788 5786 5785 5784 5783 5782 5782 5781 5781 5781 5780 5780 5779 5779 5778 5778 5777 5777 5777 5776 5776 5775 5774 5774 5774 5773 5773 5772 5772 5772 5772 5772 5771 5771 5771
5793 5792 5790 5789 5787 5786 5784 5782 5781 5779 5778 5777 5776 5775 5775 5774 5774 5774 5773 5773 5773 5772 5772 5771 5771 5771 5770 5770 5769 5769 5768 5767 5767 5767 5766 5766 5765 5765 5765 5765 5765 5765 5764
5787 5786 5784 5783 5781 5779 5778 5776 5774 5772 5771 5769 5768 5768 5767 5767 5767 5766 5766 5765 5765 5765 5765 5764 5764 5764 5763 5763 5763 5762 5761 5761 5760 5760 5759 5759 5758 5758 5758 5757 5757 5757 5756
5781 5779 5777 5776 5774 5773 5771 5769 5767 5765 5764 5762 5761 5760 5760 5759 5759 5758 5758 5757 5757 5757 5757 5757 5757 5756 5756 5756 5755 5755 5754 5753 5753 5753 5752 5752 5751 5751 5750 5750 5750 5749 5749
5774 5772 5770 5769 5767 5765 5763 5761 5760 5758 5756 5755 5754 5753 5752 5751 5751 5750 5750 5749 5749 5749 5749 5748 5748 5748 5748 5748 5747 5747 5746 5746 5745 5745 5744 5744 5744 5743 5743 5742 5742 5741 5741
5767 5765 5763 5761 5759 5758 5756 5753 5752 5750 5748 5747 5746 5745 5744 5743 5743 5742 5741 5741 5740 5740 5740 5740 5740 5740 5739 5739 5739 5739 5738 5738 5738 5737 5736 5736 5736 5735 5735 5734 5733 5733 5733
5759 5757 5755 5753 5751 5749 5747 5745 5743 5742 5740 5739 5737 5737 5736 5735 5734 5734 5732 5732 5731 5731 5731 5731 5731 5731 5731 5731 5730 5730 5730 5729 5729 5729 5728 5728 5727 5727 5726 5726 5725 5724 5724
5750 5749 5747 5745 5743 5740 5738 5736 5735 5733 5731 5730 5729 5728 5727 5726 5725 5724 5723 5722 5722 5721 5721 5721 5722 5722 5722 5722 5722 5722 5721 5721 5720 5720 5720 5719 5718 5718 5717 5717 5716 5716 5715
5742 5740 5738 5736 5734 5732 5729 5727 5725 5723 5722 5720 5719 5718 5717 5716 5715 5715 5713 5712 5712 5712 5712 5711 5712 5712 5712 5712 5712 5712 5712 5712 5711 5711 5710 5710 5709 5709 5708 5708 5708 5707 5707
5732 5730 5728 5726 5724 5722 5720 5717 5715 5713 5712 5710 5709 5708 5707 5706 5705 5705 5703 5702 5702 5702 5702 5702 5702 5702 5702 5702 5703 5703 5703 5702 5702 5701 5701 5700 5700 5699 5699 5699 5699 5698 5698
5721 5720 5718 5715 5713 5711 5709 5707 5705 5703 5702 5700 5699 5697 5696 5695 5694 5694 5693 5692 5692 5692 5692 5692 5692 5692 5692 5692 5692 5693 5693 5693 5692 5692 5691 5691 5691 5690 5690 5689 5689 5689 5689
5710 5709 5707 5704 5702 5700 5698 5696 5694 5693 5691 5689 5688 5686 5685 5684 5683 5682 5681 5681 5681 5681 5681 5681 5681 5681 5682 5682 5682 5683 5683 5682 5682 5682 5682 5682 5681 5681 5680 5680 5679 5679 5679
5699 5697 5695 5693 5691 5689 5687 5685 5684 5682 5680 5678 5677 5675 5673 5672 5672 5671 5670 5670 5670 5670 5670 5670 5671 5671 5671 5671 5672 5672 5672 5672 5672 5672 5672 5672 5671 5671 5671 5670 5670 5670 5669
5687 5686 5684 5682 5680 5678 5676 5674 5672 5670 5669 5667 5665 5663 5662 5661 5660 5660 5659 5659 5659 5659 5659 5659 5660 5660 5660 5661 5661 5661 5661 5661 5662 5662 5662 5662 5661 5661 5661 5661 5660 5660 5660
5677 5674 5672 5670 5668 5666 5664 5662 5660 5659 5657 5655 5654 5652 5651 5650 5649 5648 5648 5648 5648 5648 5648 5649 5649 5649 5649 5650 5650 5651 5651 5651 5651 5652 5652 5652 5652 5652 5652 5651 5651 5651 5651
5666 5664 5661 5659 5657 5655 5653 5651 5649 5647 5645 5643 5642 5641 5639 5639 5638 5637 5637 5637 5637 5637 5637 5638 5638 5638 5639 5639 5639 5640 5640 5641 5641 5641 5641 5642 5642 5642 5642 5641 5641 5641 5641
5655 5653 5650 5648 5646 5644 5642 5640 5638 5636 5634 5632 5631 5629 5628 5627 5627 5626 5626 5626 5626 5626 5626 5627 5627 5628 5628 5628 5628 5629 5630 5630 5631 5631 5631 5632 5632 5631 5631 5631 5631 5631 5632
5644 5642 5639 5637 5635 5633 5630 5628 5626 5625 5624 5622 5620 5618 5617 5616 5616 5615 5615 5616 5616 5616 5616 5616 5616 5617 5617 5617 5618 5618 5619 5619 5620 5620 5621 5621 5621 5621 5621 5621 5621 5622 5622
5633 5631 5629 5626 5624 5621 5619 5618 5616 5614 5612 5611 5609 5608 5606 5606 5605 5605 5605 5605 5606 5606 5606 5605 5605 5606 5606 5606 5606 5607 5607 5608 5609 5609 5610 5610 5610 5611 5611 5611 5611 5612 5612
5623 5620 5618 5616 5613 5611 5609 5607 5606 5604 5602 5601 5599 5598 5596 5596 5595 5595 5595 5595 5595 5595 5595 5595 5595 5595 5595 5595 5596 5596 5597 5598 5598 5599 5599 5599 5600 5601 5601 5601 5602 5602 5602
5613 5610 5608 5605 5603 5601 5599 5597 5596 5594 5592 5591 5590 5588 5587 5586 5586 5586 5586 5585 5585 5585 5585 5585 5585 5584 5585 5585 5586 5586 5587 5587 5588 5588 5589 5589 5590 5590 5591 5591 5592 5592 5593
5602 5600 5598 5595 5593 5591 5589 5588 5586 5585 5583 5582 5581 5579 5578 5577 5577 5576 5576 5575 5575 5575 5575 5575 5575 5575 5575 5576 5576 5577 5577 5578 5578 5578 5579 5579 5580 5581 5581 5582 5582 5583 5584
5592 5590 5588 5585 5583 5582 5580 5578 5577 5576 5574 5573 5572 5571 5570 5569 5568 5567 5567 5567 5566 5566 5566 5566 5566 5566 5566 5566 5566 5567 5567 5568 5568 5568 5569 5569 5570 5571 5571 5571 5572 5573 5574
5583 5580 5578 5576 5574 5572 5570 5569 5568 5567 5565 5564 5563 5562 5561 5560 5560 5559 5558 5558 5558 5558 5557 5557 5557 5557 5557 5556 5557 5557 5557 5557 5558 5558 5559 5560 5560 5561 5561 5562 5563 5563 5564
5573 5571 5569 5567 5565 5563 5561 5560 5559 5558 5557 5556 5555 5554 5553 5552 5551 5551 5550 5550 5550 5549 5549 5549 5548 5548 5548 5548 5548 5548 5548 5548 5548 5549 5549 5550 5551 5551 5552 5552 5553 5554 5555
5564 5562 5560 5558 5556 5554 5552 5551 5550 5549 5548 5547 5547 5546 5545 5544 5544 5543 5543 5542 5542 5541 5541 5541 5540 5540 5539 5539 5539 5539 5539 5539 5539 5539 5540 5540 5541 5542 5542 5543 5543 5544 5545